[[{"header":{"parameterUnit":"m.s-1","parameterCategory":2,"la1":30.2992,"la2":30.254,"lo1":-89.0895,"lo2":-89.0443,"dy":0.0025,"dx":0.0025,"nx":19,"ny":19,"refTime":"2026-03-27T03:00:00:Z","depth":"0","parameterNumber":2,"parameterNumberName":"U-component_of_CURRENTS"},"data":[0,0,0,-0.2079,-0.208,-0.2118,-0.2118,-0.2145,-0.2145,0,0,0,0,0,0,0,0,0,0,0,-0.2055,-0.2055,-0.2079,-0.208,-0.2118,-0.2118,-0.2145,-0.2145,0,0,0,0,0,0,0,0,0,0,0,-0.2055,-0.2055,-0.2056,-0.208,-0.2118,-0.2118,-0.2145,-0.212,0,0,0,0,0,0,0,0,0,0,-0.2085,-0.2062,-0.2055,-0.2056,-0.208,-0.2118,-0.2118,-0.2119,-0.2121,-0.2124,0,-0.2128,0,-0.2145,-0.2147,-0.2147,0,0,0,-0.2073,-0.206,-0.208,-0.2056,-0.2081,-0.2118,-0.2099,-0.212,-0.2123,-0.2127,-0.2129,-0.213,-0.2145,-0.2147,-0.2148,-0.2199,-0.2199,0,0,-0.2071,-0.2053,-0.2078,-0.2082,-0.2089,-0.2098,-0.21,-0.2122,-0.2118,-0.2129,-0.2131,-0.2146,-0.2148,-0.2148,-0.2198,-0.2199,0,0,0,-0.207,-0.2051,-0.2071,-0.208,-0.2093,-0.2099,-0.2102,-0.2116,-0.2126,-0.2132,-0.2146,-0.2148,-0.2148,-0.2198,-0.2199,-0.2217,0,0,0,-0.2068,-0.2052,-0.207,-0.2059,-0.2093,-0.2107,-0.2095,-0.2124,-0.2128,-0.2146,-0.2148,-0.2148,-0.2198,-0.2198,-0.2216,-0.2232,0,0,0,-0.2054,-0.205,-0.2056,-0.2058,-0.208,-0.2108,-0.2118,-0.2125,-0.2137,-0.2147,-0.2148,-0.2197,-0.2198,-0.2215,-0.223,-0.2251,0,0,0,-0.2032,-0.2044,-0.2055,-0.2078,-0.208,-0.2128,-0.2118,-0.2144,-0.2155,-0.2148,-0.2198,-0.2198,-0.2214,-0.2229,-0.225,-0.222,-0.2225,0,0,-0.2039,-0.2044,-0.2062,-0.2074,-0.212,-0.2123,-0.2168,-0.2172,-0.2168,-0.2187,-0.2188,-0.2216,-0.223,-0.2251,-0.2267,-0.227,0,0,0,-0.2061,-0.2067,-0.2086,-0.2113,-0.2151,-0.2182,-0.2192,-0.2199,-0.2213,-0.218,-0.2228,-0.2236,-0.2248,-0.2228,-0.2231,-0.222,-0.2202,-0.2202,-0.2202,-0.2023,-0.2064,-0.2094,-0.2143,-0.2177,-0.2222,-0.2247,-0.2257,-0.2243,-0.2253,-0.2259,-0.23,-0.2279,-0.2281,-0.2271,-0.2264,-0.2264,-0.2264,-0.2264,-0.2024,-0.2035,-0.2096,-0.2136,-0.2189,-0.2224,-0.2288,-0.2289,-0.2321,-0.2296,-0.2306,-0.2259,-0.2284,-0.2273,-0.2266,-0.2266,-0.2265,-0.2265,-0.2265,-0.1983,-0.1993,-0.2031,-0.2091,-0.215,-0.2215,-0.2274,-0.2315,-0.2336,-0.2356,-0.2326,-0.2325,-0.2308,-0.2352,-0.2353,-0.2353,-0.2353,-0.2353,-0.2353,-0.1908,-0.1954,-0.1966,-0.2042,-0.207,-0.2141,-0.2257,-0.2302,-0.2349,-0.2355,-0.2355,-0.2324,-0.2327,-0.2316,-0.2356,-0.2355,-0.2355,-0.2355,-0.2355,-0.1828,-0.1853,-0.1867,-0.1892,-0.1973,-0.201,-0.2161,-0.2268,-0.2335,-0.2348,-0.2343,-0.2355,-0.2349,-0.2346,-0.2335,-0.2378,-0.2378,-0.2378,-0.2378,-0.1746,-0.1772,-0.1755,-0.1775,-0.1832,-0.1936,-0.2003,-0.214,-0.2266,-0.2294,-0.2348,-0.2315,-0.2314,-0.2304,-0.2302,-0.229,-0.2321,-0.2321,-0.2321,-0.1668,-0.1687,-0.1634,-0.1682,-0.1746,-0.1833,-0.1873,-0.2054,-0.2246,-0.2319,-0.2344,-0.2346,-0.2297,-0.2297,-0.2278,-0.2277,-0.2256,0,0]},{"header":{"parameterUnit":"m.s-1","parameterCategory":2,"la1":30.2992,"la2":30.254,"lo1":-89.0895,"lo2":-89.0443,"dy":0.0025,"dx":0.0025,"nx":19,"ny":19,"refTime":"2026-03-27T03:00:00:Z","depth":"0","parameterNumber":3,"parameterNumberName":"V-component_of_CURRENTS"},"data":[0,0,0,-0.0408,-0.0407,-0.0332,-0.0331,-0.0236,-0.0235,0,0,0,0,0,0,0,0,0,0,0,-0.0435,-0.0435,-0.0408,-0.0406,-0.0332,-0.0331,-0.0236,-0.0235,0,0,0,0,0,0,0,0,0,0,0,-0.0436,-0.0435,-0.0435,-0.0406,-0.0332,-0.0331,-0.0236,-0.029,0,0,0,0,0,0,0,0,0,0,-0.0361,-0.0395,-0.0435,-0.0435,-0.0406,-0.0332,-0.0331,-0.0292,-0.0286,-0.0274,0,-0.0271,0,-0.0255,-0.023,-0.023,0,0,0,-0.0394,-0.04,-0.0378,-0.0435,-0.0405,-0.0332,-0.0362,-0.0289,-0.0282,-0.0266,-0.0269,-0.0266,-0.0254,-0.0229,-0.0229,-0.0186,-0.0186,0,0,-0.0398,-0.042,-0.0382,-0.0374,-0.0397,-0.0365,-0.036,-0.0285,-0.0284,-0.0269,-0.0263,-0.0252,-0.0229,-0.0228,-0.0186,-0.0186,0,0,0,-0.0418,-0.0423,-0.0402,-0.0378,-0.0367,-0.0363,-0.0357,-0.0287,-0.028,-0.0262,-0.0251,-0.0229,-0.0228,-0.0186,-0.0186,-0.0253,0,0,0,-0.042,-0.0435,-0.0405,-0.0416,-0.0369,-0.0327,-0.0362,-0.0285,-0.0276,-0.0251,-0.0228,-0.0227,-0.0186,-0.0186,-0.0251,-0.0295,0,0,0,-0.0437,-0.0437,-0.0431,-0.0418,-0.039,-0.0328,-0.0316,-0.0283,-0.027,-0.023,-0.0227,-0.0186,-0.0186,-0.0249,-0.0291,-0.0286,0,0,0,-0.0456,-0.0472,-0.0432,-0.0448,-0.0391,-0.0367,-0.0316,-0.029,-0.0261,-0.0228,-0.0186,-0.0186,-0.0249,-0.0289,-0.0284,-0.0288,-0.0297,0,0,-0.0491,-0.0477,-0.0487,-0.045,-0.0456,-0.0376,-0.0368,-0.0308,-0.0259,-0.0208,-0.0207,-0.0252,-0.0291,-0.0285,-0.0305,-0.0313,0,0,0,-0.0508,-0.052,-0.0513,-0.0506,-0.0466,-0.0432,-0.0362,-0.0324,-0.0273,-0.0244,-0.0239,-0.0261,-0.0255,-0.0254,-0.026,-0.0096,-0.0188,-0.0187,-0.0187,-0.0583,-0.0565,-0.059,-0.0564,-0.0541,-0.0466,-0.0432,-0.0365,-0.031,-0.0296,-0.0306,-0.0337,-0.0336,-0.0341,-0.0172,-0.0285,-0.0286,-0.0286,-0.0286,-0.0661,-0.0683,-0.0655,-0.0673,-0.0621,-0.0598,-0.0502,-0.0451,-0.039,-0.0349,-0.0339,-0.0313,-0.0352,-0.0169,-0.029,-0.0289,-0.0289,-0.0288,-0.0288,-0.0722,-0.0733,-0.0736,-0.0759,-0.075,-0.0682,-0.0666,-0.0572,-0.0467,-0.0457,-0.041,-0.0408,-0.0253,-0.0436,-0.0436,-0.0436,-0.0436,-0.0437,-0.0437,-0.0786,-0.0791,-0.0839,-0.0849,-0.0864,-0.0854,-0.0757,-0.0703,-0.0578,-0.0489,-0.0488,-0.0243,-0.0382,-0.0383,-0.0439,-0.0439,-0.0439,-0.0438,-0.0438,-0.0868,-0.0863,-0.0943,-0.0975,-0.1016,-0.1046,-0.0941,-0.0807,-0.0708,-0.0645,-0.0304,-0.0484,-0.0457,-0.0451,-0.0453,-0.0524,-0.0524,-0.0524,-0.0524,-0.0917,-0.0925,-0.1037,-0.111,-0.1162,-0.114,-0.1118,-0.0923,-0.0548,-0.0334,-0.0245,-0.0191,-0.0195,-0.0148,-0.0148,-0.0142,-0.0132,-0.0131,-0.0131,-0.0971,-0.1002,-0.1094,-0.1166,-0.1231,-0.1243,-0.1221,-0.0986,-0.0395,-0.0095,-0.0013,-0.003,0.007,0.0051,0.0141,0.0128,0.0144,0,0]}],[{"header":{"parameterUnit":"m.s-1","parameterCategory":2,"la1":30.2992,"la2":30.254,"lo1":-89.0895,"lo2":-89.0443,"dy":0.0025,"dx":0.0025,"nx":19,"ny":19,"refTime":"2026-03-27T03:00:00:Z","depth":"2","parameterNumber":2,"parameterNumberName":"U-component_of_CURRENTS"},"data":[0,0,0,-0.2025,-0.2027,-0.2067,-0.2067,-0.2095,-0.2095,0,0,0,0,0,0,0,0,0,0,0,-0.2002,-0.2002,-0.2025,-0.2027,-0.2067,-0.2067,-0.2095,-0.2095,0,0,0,0,0,0,0,0,0,0,0,-0.2002,-0.2002,-0.2002,-0.2027,-0.2067,-0.2067,-0.2095,-0.2069,0,0,0,0,0,0,0,0,0,0,-0.2032,-0.2009,-0.2002,-0.2002,-0.2027,-0.2067,-0.2067,-0.2068,-0.207,-0.2072,0,-0.2077,0,-0.2094,-0.2097,-0.2097,0,0,0,-0.202,-0.2007,-0.2027,-0.2002,-0.2028,-0.2067,-0.2047,-0.2069,-0.2072,-0.2076,-0.2078,-0.2079,-0.2094,-0.2098,-0.2098,-0.2148,-0.2149,0,0,-0.2018,-0.2,-0.2025,-0.2029,-0.2036,-0.2046,-0.2048,-0.2071,-0.2068,-0.2078,-0.208,-0.2095,-0.2098,-0.2098,-0.2148,-0.2148,0,0,0,-0.2016,-0.1998,-0.2019,-0.2027,-0.2041,-0.2047,-0.205,-0.2066,-0.2076,-0.2081,-0.2095,-0.2098,-0.2098,-0.2148,-0.2148,-0.2168,0,0,0,-0.2014,-0.1998,-0.2017,-0.2006,-0.2041,-0.2056,-0.2044,-0.2074,-0.2077,-0.2095,-0.2098,-0.2099,-0.2147,-0.2148,-0.2166,-0.2182,0,0,0,-0.2,-0.1997,-0.2003,-0.2005,-0.2028,-0.2057,-0.2067,-0.2075,-0.2086,-0.2097,-0.2099,-0.2147,-0.2148,-0.2165,-0.218,-0.22,0,0,0,-0.1979,-0.1991,-0.2002,-0.2025,-0.2028,-0.2076,-0.2067,-0.2094,-0.2106,-0.2098,-0.2147,-0.2148,-0.2165,-0.2179,-0.2199,-0.2156,-0.2159,0,0,-0.1986,-0.1991,-0.2009,-0.2021,-0.2066,-0.207,-0.2115,-0.2121,-0.2118,-0.2136,-0.2137,-0.2167,-0.218,-0.22,-0.2202,-0.2204,0,0,0,-0.2007,-0.2013,-0.2031,-0.2059,-0.2097,-0.2129,-0.214,-0.2148,-0.2163,-0.213,-0.2178,-0.2186,-0.2198,-0.2169,-0.2171,-0.2152,-0.2152,-0.2152,-0.2152,-0.1971,-0.201,-0.204,-0.2087,-0.2122,-0.2168,-0.2193,-0.2205,-0.2192,-0.2203,-0.221,-0.225,-0.222,-0.222,-0.2214,-0.2214,-0.2215,-0.2215,-0.2215,-0.1971,-0.1982,-0.2042,-0.2081,-0.2134,-0.217,-0.2234,-0.2237,-0.2269,-0.2246,-0.2256,-0.2201,-0.2223,-0.2216,-0.2216,-0.2216,-0.2216,-0.2216,-0.2215,-0.1931,-0.1941,-0.1979,-0.2038,-0.2097,-0.2162,-0.2221,-0.2263,-0.2285,-0.2305,-0.2266,-0.2265,-0.226,-0.2302,-0.2302,-0.2303,-0.2303,-0.2303,-0.2303,-0.1858,-0.1903,-0.1915,-0.1991,-0.202,-0.209,-0.2206,-0.225,-0.2291,-0.2294,-0.2293,-0.228,-0.2277,-0.2266,-0.2306,-0.2305,-0.2305,-0.2305,-0.2304,-0.1779,-0.1805,-0.1818,-0.1844,-0.1924,-0.1946,-0.2105,-0.2204,-0.2271,-0.228,-0.2288,-0.2287,-0.2279,-0.2276,-0.2265,-0.2303,-0.2303,-0.2303,-0.2303,-0.17,-0.1725,-0.171,-0.1729,-0.1784,-0.1868,-0.1886,-0.1938,-0.2061,-0.2062,-0.2072,-0.2019,-0.2026,-0.2,-0.2004,-0.1985,-0.195,-0.1949,-0.1948,-0.1624,-0.1642,-0.1591,-0.1637,-0.1699,-0.1752,-0.1693,-0.1617,-0.1715,-0.1927,-0.1933,-0.2294,-0.2244,-0.2244,-0.2224,-0.2223,-0.2202,0,0]},{"header":{"parameterUnit":"m.s-1","parameterCategory":2,"la1":30.2992,"la2":30.254,"lo1":-89.0895,"lo2":-89.0443,"dy":0.0025,"dx":0.0025,"nx":19,"ny":19,"refTime":"2026-03-27T03:00:00:Z","depth":"2","parameterNumber":3,"parameterNumberName":"V-component_of_CURRENTS"},"data":[0,0,0,-0.0335,-0.0334,-0.0262,-0.0261,-0.0166,-0.0165,0,0,0,0,0,0,0,0,0,0,0,-0.0362,-0.0362,-0.0335,-0.0334,-0.0262,-0.0261,-0.0166,-0.0165,0,0,0,0,0,0,0,0,0,0,0,-0.0362,-0.0362,-0.0362,-0.0334,-0.0262,-0.0261,-0.0166,-0.0218,0,0,0,0,0,0,0,0,0,0,-0.0288,-0.0322,-0.0362,-0.0362,-0.0334,-0.0262,-0.0261,-0.0221,-0.0215,-0.0201,0,-0.0199,0,-0.0184,-0.016,-0.0159,0,0,0,-0.0322,-0.0327,-0.0305,-0.0362,-0.0333,-0.0262,-0.0291,-0.0217,-0.0211,-0.0194,-0.0198,-0.0194,-0.0183,-0.0159,-0.0159,-0.0115,-0.0115,0,0,-0.0326,-0.0347,-0.0309,-0.0301,-0.0326,-0.0293,-0.0289,-0.0213,-0.0213,-0.0197,-0.0192,-0.0181,-0.0159,-0.0158,-0.0115,-0.0115,0,0,0,-0.0345,-0.035,-0.033,-0.0305,-0.0295,-0.0292,-0.0286,-0.0216,-0.0209,-0.019,-0.018,-0.0158,-0.0157,-0.0115,-0.0115,-0.0182,0,0,0,-0.0347,-0.0362,-0.0332,-0.0344,-0.0297,-0.0256,-0.0291,-0.0214,-0.0205,-0.018,-0.0158,-0.0156,-0.0114,-0.0115,-0.018,-0.0223,0,0,0,-0.0363,-0.0364,-0.0359,-0.0345,-0.0319,-0.0257,-0.0245,-0.0212,-0.0199,-0.0159,-0.0156,-0.0114,-0.0115,-0.0178,-0.0219,-0.0213,0,0,0,-0.0383,-0.0399,-0.036,-0.0375,-0.032,-0.0296,-0.0245,-0.022,-0.0191,-0.0158,-0.0114,-0.0115,-0.0177,-0.0217,-0.0211,-0.0216,-0.0225,0,0,-0.0417,-0.0403,-0.0413,-0.0377,-0.0382,-0.0304,-0.0296,-0.0237,-0.0188,-0.0136,-0.0135,-0.018,-0.0219,-0.0213,-0.0232,-0.0241,0,0,0,-0.0434,-0.0445,-0.0439,-0.0432,-0.0392,-0.0359,-0.0289,-0.0252,-0.0202,-0.0174,-0.0167,-0.0189,-0.0183,-0.0181,-0.0188,-0.0116,-0.0116,-0.0116,-0.0116,-0.0508,-0.0491,-0.0514,-0.0488,-0.0466,-0.0392,-0.0358,-0.0292,-0.0238,-0.0225,-0.0234,-0.0265,-0.0264,-0.0269,-0.0214,-0.0214,-0.0214,-0.0214,-0.0214,-0.0585,-0.0606,-0.0578,-0.0596,-0.0545,-0.0522,-0.0427,-0.0377,-0.0317,-0.0277,-0.0266,-0.0241,-0.028,-0.0219,-0.0219,-0.0218,-0.0217,-0.0217,-0.0217,-0.0645,-0.0656,-0.066,-0.0682,-0.0672,-0.0606,-0.0589,-0.0497,-0.0393,-0.0383,-0.0337,-0.0335,-0.0304,-0.0363,-0.0364,-0.0364,-0.0364,-0.0364,-0.0364,-0.0709,-0.0714,-0.0762,-0.0771,-0.0786,-0.0776,-0.068,-0.0626,-0.0503,-0.0415,-0.0414,-0.0314,-0.0309,-0.0311,-0.0367,-0.0366,-0.0366,-0.0366,-0.0366,-0.079,-0.0786,-0.0866,-0.0897,-0.0937,-0.0955,-0.086,-0.0728,-0.0632,-0.0569,-0.0412,-0.041,-0.0383,-0.0377,-0.0379,-0.0449,-0.0449,-0.0449,-0.0449,-0.084,-0.0847,-0.0959,-0.103,-0.108,-0.1043,-0.0998,-0.0786,-0.057,-0.0433,-0.0433,-0.0406,-0.0404,-0.0375,-0.0368,-0.0368,-0.0436,-0.0436,-0.0436,-0.0894,-0.0925,-0.1016,-0.1086,-0.1148,-0.1134,-0.1061,-0.0772,-0.0455,-0.0434,-0.041,-0.0453,-0.0412,-0.0408,-0.0361,-0.0352,-0.0351,0,0]}],[{"header":{"parameterUnit":"m.s-1","parameterCategory":2,"la1":30.2992,"la2":30.254,"lo1":-89.0895,"lo2":-89.0443,"dy":0.0025,"dx":0.0025,"nx":19,"ny":19,"refTime":"2026-03-27T03:00:00:Z","depth":"4","parameterNumber":2,"parameterNumberName":"U-component_of_CURRENTS"},"data":[0,0,0,-0.1423,-0.1426,-0.1553,-0.1554,-0.1651,-0.1652,0,0,0,0,0,0,0,0,0,0,0,-0.1381,-0.1382,-0.1423,-0.1426,-0.1553,-0.1554,-0.1651,-0.1652,0,0,0,0,0,0,0,0,0,0,0,-0.1381,-0.1382,-0.1383,-0.1427,-0.1553,-0.1554,-0.1651,-0.1572,0,0,0,0,0,0,0,0,0,0,-0.1457,-0.1428,-0.1382,-0.1383,-0.1427,-0.1553,-0.1554,-0.1569,-0.1577,-0.1574,0,-0.1599,0,-0.1625,-0.1657,-0.1657,0,0,0,-0.1429,-0.1421,-0.1453,-0.1383,-0.1428,-0.1553,-0.1497,-0.1574,-0.1583,-0.1584,-0.1601,-0.1605,-0.1626,-0.1657,-0.1657,-0.1749,-0.175,0,0,-0.1422,-0.1405,-0.1448,-0.1459,-0.1467,-0.1492,-0.15,-0.158,-0.1591,-0.1601,-0.1608,-0.1628,-0.1657,-0.1658,-0.1749,-0.1749,0,0,0,-0.14,-0.14,-0.1432,-0.1455,-0.1482,-0.1496,-0.1505,-0.1588,-0.1598,-0.1609,-0.1629,-0.1658,-0.1659,-0.1748,-0.1749,-0.1776,0,0,0,-0.1396,-0.1387,-0.1429,-0.142,-0.1481,-0.1546,-0.1511,-0.1593,-0.1603,-0.1629,-0.1658,-0.1659,-0.1748,-0.1749,-0.1774,-0.1786,0,0,0,-0.1374,-0.1385,-0.1401,-0.1419,-0.1473,-0.1545,-0.1561,-0.1596,-0.1614,-0.1657,-0.166,-0.1747,-0.1749,-0.1772,-0.1783,-0.1801,0,0,0,-0.135,-0.1376,-0.1401,-0.1443,-0.1471,-0.1553,-0.1561,-0.1629,-0.1669,-0.1658,-0.1748,-0.1749,-0.1772,-0.1782,-0.18,-0.1584,0,0,0,-0.1364,-0.1377,-0.1403,-0.1428,-0.1498,-0.1535,-0.1614,-0.167,-0.1682,-0.1716,-0.1719,-0.1775,-0.1783,-0.1801,-0.1652,0,0,0,0,-0.1395,-0.1413,-0.144,-0.1491,-0.1551,-0.1618,-0.1674,-0.1699,-0.1755,-0.1711,-0.179,-0.1795,-0.1805,-0.1675,-0.1755,-0.1754,-0.1754,-0.1754,-0.1754,-0.1374,-0.1419,-0.1467,-0.1532,-0.159,-0.1681,-0.1734,-0.1779,-0.1784,-0.1816,-0.1828,-0.1876,-0.1741,-0.1841,-0.1841,-0.1841,-0.1841,-0.1841,-0.1841,-0.1379,-0.1398,-0.1481,-0.1544,-0.1627,-0.17,-0.1795,-0.1821,-0.1882,-0.1872,-0.188,-0.1726,-0.1844,-0.1844,-0.1843,-0.1843,-0.1843,-0.1842,-0.1842,-0.1338,-0.1352,-0.1417,-0.1513,-0.1613,-0.1713,-0.1784,-0.186,-0.1904,-0.193,-0.1787,-0.1897,-0.1882,-0.1934,-0.1934,-0.1934,-0.1934,-0.1934,-0.1935,-0.1251,-0.1319,-0.1364,-0.1479,-0.154,-0.1638,-0.1782,-0.1819,-0.189,-0.1799,-0.194,-0.1907,-0.1904,-0.1887,-0.1937,-0.1936,-0.1936,-0.1936,-0.1936,-0.1168,-0.1217,-0.1264,-0.1324,-0.1453,-0.151,-0.1678,-0.1708,-0.1731,-0.1694,-0.1723,-0.1733,-0.1703,-0.1705,-0.168,-0.1669,-0.1667,-0.1664,0,-0.1094,-0.1126,-0.1169,-0.1223,-0.1281,-0.142,-0.1411,-0.149,-0.1553,-0.1497,-0.1725,-0.1756,-0.1762,-0.1727,-0.1725,-0.1693,0,0,0,-0.1032,-0.1058,-0.1049,-0.1129,-0.1187,-0.1265,-0.1397,-0.1367,-0.1548,-0.1514,-0.1599,-0.1616,-0.1824,-0.1944,-0.192,-0.1917,-0.1889,0,0]},{"header":{"parameterUnit":"m.s-1","parameterCategory":2,"la1":30.2992,"la2":30.254,"lo1":-89.0895,"lo2":-89.0443,"dy":0.0025,"dx":0.0025,"nx":19,"ny":19,"refTime":"2026-03-27T03:00:00:Z","depth":"4","parameterNumber":3,"parameterNumberName":"V-component_of_CURRENTS"},"data":[0,0,0,-0.0114,-0.0114,-0.0076,-0.0076,-0.0011,-0.001,0,0,0,0,0,0,0,0,0,0,0,-0.0129,-0.0129,-0.0114,-0.0114,-0.0076,-0.0076,-0.0011,-0.001,0,0,0,0,0,0,0,0,0,0,0,-0.0129,-0.0129,-0.0129,-0.0114,-0.0076,-0.0076,-0.0011,-0.0041,0,0,0,0,0,0,0,0,0,0,-0.0079,-0.0102,-0.0129,-0.0129,-0.0114,-0.0076,-0.0076,-0.0043,-0.0039,-0.0026,0,-0.0028,0,-0.0021,-0.0006,-0.0006,0,0,0,-0.0104,-0.0105,-0.0093,-0.0129,-0.0114,-0.0076,-0.009,-0.0041,-0.0037,-0.0022,-0.0028,-0.0025,-0.002,-0.0006,-0.0006,0.0017,0.0017,0,0,-0.0106,-0.012,-0.0096,-0.0091,-0.0114,-0.0092,-0.0089,-0.0039,-0.004,-0.0027,-0.0024,-0.0019,-0.0006,-0.0005,0.0017,0.0017,0,0,0,-0.0119,-0.0122,-0.0111,-0.0094,-0.009,-0.0091,-0.0088,-0.0042,-0.0038,-0.0023,-0.0018,-0.0005,-0.0005,0.0017,0.0017,-0.0041,0,0,0,-0.0119,-0.013,-0.0113,-0.012,-0.0091,-0.0069,-0.0093,-0.0042,-0.0036,-0.0019,-0.0005,-0.0004,0.0018,0.0017,-0.0039,-0.0075,0,0,0,-0.0129,-0.0131,-0.0129,-0.0121,-0.0109,-0.0069,-0.0062,-0.004,-0.0033,-0.0006,-0.0004,0.0018,0.0017,-0.0037,-0.0071,-0.0069,0,0,0,-0.014,-0.0156,-0.013,-0.0149,-0.0109,-0.0104,-0.0063,-0.0053,-0.0036,-0.0005,0.0018,0.0017,-0.0036,-0.0069,-0.0067,-0.0091,0,0,0,-0.0169,-0.016,-0.0173,-0.0149,-0.0166,-0.0108,-0.0115,-0.0073,-0.0035,0.0005,0.0005,-0.0039,-0.0071,-0.0068,-0.0115,0,0,0,0,-0.0188,-0.0199,-0.0199,-0.0203,-0.0183,-0.0166,-0.0118,-0.009,-0.0056,-0.0027,-0.0032,-0.005,-0.0046,-0.0055,0.0015,0.0015,0.0015,0.0015,0.0015,-0.0239,-0.0235,-0.0263,-0.0255,-0.0247,-0.0202,-0.0182,-0.0133,-0.009,-0.0084,-0.0091,-0.0123,-0.0135,-0.0077,-0.0078,-0.0078,-0.0078,-0.0078,-0.0078,-0.0298,-0.0317,-0.0314,-0.0342,-0.0316,-0.031,-0.0245,-0.0209,-0.0166,-0.0132,-0.0125,-0.0109,-0.0084,-0.0083,-0.0082,-0.0081,-0.0081,-0.0081,-0.008,-0.0332,-0.0343,-0.0364,-0.0403,-0.0417,-0.0382,-0.0378,-0.0313,-0.0232,-0.0226,-0.0202,-0.0154,-0.0155,-0.0211,-0.0211,-0.0211,-0.0211,-0.0212,-0.0212,-0.0358,-0.0379,-0.0433,-0.0468,-0.0498,-0.051,-0.0454,-0.0414,-0.0324,-0.0276,-0.0239,-0.0167,-0.0163,-0.0161,-0.0214,-0.0214,-0.0213,-0.0213,-0.0213,-0.0396,-0.0409,-0.049,-0.0536,-0.0606,-0.0607,-0.0566,-0.0464,-0.0417,-0.0353,-0.0284,-0.028,-0.0256,-0.025,-0.025,-0.0331,-0.0332,-0.0332,0,-0.0417,-0.0432,-0.0542,-0.0623,-0.0678,-0.0664,-0.0615,-0.0546,-0.0425,-0.0424,-0.0406,-0.0333,-0.0328,-0.0305,-0.0299,-0.0303,0,0,0,-0.0444,-0.0477,-0.0557,-0.0644,-0.0709,-0.0647,-0.0599,-0.0559,-0.0453,-0.0399,-0.0345,-0.0341,-0.0295,-0.0222,-0.0174,-0.0169,-0.0163,0,0]}]]